Hourly Weather Bolshoe Chirikovo

Today, 1 August, Sunday

Time Temperature Precipitation Wind Pressure Humidity
00:00 +15°C° 0 mm 2 mps 744 mmHg 88%
01:00 +15°C° 0 mm 2 mps 745 mmHg 89%
02:00 +15°C° 0 mm 2 mps 745 mmHg 92%
03:00 +15°C° 0 mm 2 mps 745 mmHg 90%
04:00 +16°C° 0 mm 2 mps 745 mmHg 88%
05:00 +16°C° 0 mm 2 mps 745 mmHg 87%
06:00 +18°C° 0 mm 2 mps 745 mmHg 78%
07:00 +20°C° 0 mm 2 mps 746 mmHg 69%
08:00 +22°C° 0 mm 3 mps 746 mmHg 61%
09:00 +22°C° 0.1 mm 4 mps 746 mmHg 61%
10:00 +22°C° 0.1 mm 4 mps 746 mmHg 62%
11:00 +22°C° 0.1 mm 5 mps 746 mmHg 63%
12:00 +21°C° 0.3 mm 5 mps 746 mmHg 73%
13:00 +19°C° 0.3 mm 4 mps 746 mmHg 84%
14:00 +18°C° 0.3 mm 3 mps 746 mmHg 94%
15:00 +19°C° 0 mm 3 mps 746 mmHg 87%
16:00 +21°C° 0 mm 4 mps 745 mmHg 80%
17:00 +22°C° 0 mm 4 mps 745 mmHg 73%
18:00 +21°C° 0 mm 3 mps 745 mmHg 79%
19:00 +20°C° 0 mm 3 mps 745 mmHg 86%
20:00 +19°C° 0 mm 2 mps 745 mmHg 92%
21:00 +18°C° 0 mm 2 mps 745 mmHg 94%
22:00 +18°C° 0 mm 2 mps 745 mmHg 95%
23:00 +17°C° 0 mm 2 mps 745 mmHg 97%

Tomorrow, 2 August, Monday

Time Temperature Precipitation Wind Pressure Humidity
00:00 +17°C° 0 mm 2 mps 745 mmHg 97%
01:00 +17°C° 0 mm 2 mps 745 mmHg 97%
02:00 +17°C° 0 mm 2 mps 745 mmHg 97%
03:00 +17°C° 0 mm 2 mps 745 mmHg 96%
04:00 +18°C° 0 mm 2 mps 745 mmHg 95%
05:00 +19°C° 0 mm 1 mps 745 mmHg 94%
06:00 +20°C° 0 mm 2 mps 745 mmHg 84%
07:00 +23°C° 0 mm 2 mps 745 mmHg 74%
08:00 +25°C° 0 mm 2 mps 745 mmHg 64%
09:00 +26°C° 0 mm 2 mps 744 mmHg 58%
10:00 +28°C° 0 mm 3 mps 744 mmHg 52%
11:00 +30°C° 0 mm 3 mps 744 mmHg 46%
12:00 +30°C° 0 mm 4 mps 743 mmHg 45%
13:00 +32°C° 0 mm 4 mps 742 mmHg 45%
14:00 +32°C° 0 mm 5 mps 742 mmHg 45%
15:00 +32°C° 0 mm 5 mps 741 mmHg 48%
16:00 +30°C° 0 mm 5 mps 741 mmHg 52%
17:00 +29°C° 0 mm 5 mps 740 mmHg 56%
18:00 +28°C° 0.1 mm 4 mps 740 mmHg 63%
19:00 +26°C° 0.1 mm 4 mps 739 mmHg 70%
20:00 +24°C° 0.1 mm 3 mps 739 mmHg 77%
21:00 +22°C° 1 mm 3 mps 739 mmHg 83%
22:00 +21°C° 1 mm 3 mps 739 mmHg 89%
23:00 +20°C° 1 mm 2 mps 739 mmHg 95%

Day after tomorrow, 3 August, Tuesday

Time Temperature Precipitation Wind Pressure Humidity
00:00 +19°C° 0 mm 3 mps 739 mmHg 95%
01:00 +19°C° 0 mm 3 mps 740 mmHg 95%
02:00 +18°C° 0 mm 4 mps 740 mmHg 95%
03:00 +17°C° 0 mm 4 mps 740 mmHg 95%
04:00 +17°C° 0 mm 3 mps 741 mmHg 94%
05:00 +16°C° 0 mm 3 mps 741 mmHg 94%
06:00 +17°C° 0 mm 3 mps 742 mmHg 87%
07:00 +18°C° 0 mm 3 mps 742 mmHg 81%
08:00 +18°C° 0 mm 3 mps 743 mmHg 75%
09:00 +19°C° 0 mm 3 mps 743 mmHg 73%
10:00 +19°C° 0 mm 3 mps 743 mmHg 72%
11:00 +20°C° 0 mm 4 mps 744 mmHg 70%
12:00 +20°C° 0.1 mm 4 mps 744 mmHg 67%
13:00 +21°C° 0.1 mm 4 mps 744 mmHg 64%
14:00 +22°C° 0.1 mm 4 mps 744 mmHg 61%
15:00 +21°C° 0.3 mm 4 mps 744 mmHg 68%
16:00 +20°C° 0.3 mm 3 mps 744 mmHg 75%
17:00 +19°C° 0.3 mm 3 mps 744 mmHg 81%
18:00 +18°C° 0.1 mm 3 mps 745 mmHg 83%
19:00 +17°C° 0.1 mm 2 mps 745 mmHg 85%
20:00 +16°C° 0.1 mm 2 mps 745 mmHg 88%
21:00 +16°C° 0 mm 2 mps 745 mmHg 88%
22:00 +15°C° 0 mm 2 mps 746 mmHg 88%
23:00 +15°C° 0 mm 2 mps 746 mmHg 89%

4 August, Wednesday

Time Temperature Precipitation Wind Pressure Humidity
00:00 +14°C° 0 mm 2 mps 747 mmHg 90%
01:00 +14°C° 0 mm 2 mps 747 mmHg 92%
02:00 +13°C° 0 mm 2 mps 747 mmHg 93%
03:00 +13°C° 0 mm 2 mps 747 mmHg 92%
04:00 +13°C° 0 mm 2 mps 748 mmHg 92%
05:00 +14°C° 0 mm 1 mps 748 mmHg 91%
06:00 +16°C° 0 mm 1 mps 748 mmHg 80%
07:00 +19°C° 0 mm 1 mps 749 mmHg 69%
08:00 +21°C° 0 mm 1 mps 749 mmHg 58%
09:00 +20°C° 0 mm 2 mps 749 mmHg 54%
10:00 +21°C° 0 mm 2 mps 749 mmHg 50%
11:00 +23°C° 0 mm 2 mps 750 mmHg 46%
12:00 +23°C° 0 mm 2 mps 750 mmHg 46%
13:00 +23°C° 0 mm 2 mps 750 mmHg 46%
14:00 +23°C° 0 mm 2 mps 750 mmHg 46%
15:00 +23°C° 0 mm 2 mps 750 mmHg 47%
16:00 +23°C° 0 mm 2 mps 750 mmHg 47%
17:00 +23°C° 0 mm 2 mps 750 mmHg 48%
18:00 +20°C° 0 mm 2 mps 750 mmHg 51%
19:00 +19°C° 0 mm 2 mps 751 mmHg 54%
20:00 +17°C° 0 mm 2 mps 751 mmHg 56%
21:00 +16°C° 0 mm 2 mps 751 mmHg 60%
22:00 +15°C° 0 mm 2 mps 752 mmHg 63%
23:00 +14°C° 0 mm 2 mps 752 mmHg 66%

5 August, Thursday

Time Temperature Precipitation Wind Pressure Humidity
00:00 +14°C° 0 mm 2 mps 752 mmHg 68%
01:00 +13°C° 0 mm 2 mps 752 mmHg 70%
02:00 +12°C° 0 mm 2 mps 752 mmHg 72%
03:00 +12°C° 0 mm 2 mps 753 mmHg 72%
04:00 +12°C° 0 mm 1 mps 753 mmHg 72%
05:00 +13°C° 0 mm 1 mps 753 mmHg 72%
06:00 +15°C° 0 mm 2 mps 753 mmHg 63%
07:00 +17°C° 0 mm 2 mps 753 mmHg 55%
08:00 +19°C° 0 mm 2 mps 753 mmHg 46%
09:00 +20°C° 0 mm 2 mps 753 mmHg 43%
10:00 +21°C° 0 mm 2 mps 753 mmHg 39%
11:00 +23°C° 0 mm 2 mps 753 mmHg 35%
12:00 +24°C° 0 mm 2 mps 753 mmHg 34%
13:00 +24°C° 0 mm 2 mps 752 mmHg 33%
14:00 +24°C° 0 mm 1 mps 752 mmHg 32%
15:00 +24°C° 0 mm 2 mps 752 mmHg 34%
16:00 +24°C° 0 mm 2 mps 752 mmHg 36%
17:00 +24°C° 0 mm 2 mps 752 mmHg 38%
18:00 +20°C° 0 mm 2 mps 752 mmHg 43%
19:00 +18°C° 0 mm 2 mps 752 mmHg 49%
20:00 +16°C° 0 mm 2 mps 751 mmHg 55%
21:00 +16°C° 0 mm 2 mps 752 mmHg 56%
22:00 +15°C° 0 mm 2 mps 752 mmHg 58%
23:00 +15°C° 0 mm 2 mps 752 mmHg 59%

6 August, Friday

Time Temperature Precipitation Wind Pressure Humidity
00:00 +14°C° 0 mm 2 mps 752 mmHg 61%
01:00 +13°C° 0 mm 2 mps 752 mmHg 64%
02:00 +13°C° 0 mm 2 mps 752 mmHg 66%
03:00 +13°C° 0 mm 2 mps 752 mmHg 66%
04:00 +14°C° 0 mm 2 mps 752 mmHg 66%
05:00 +14°C° 0 mm 2 mps 752 mmHg 66%
06:00 +16°C° 0 mm 2 mps 752 mmHg 65%
07:00 +17°C° 0 mm 2 mps 752 mmHg 64%
08:00 +19°C° 0 mm 3 mps 752 mmHg 62%
09:00 +20°C° 0 mm 3 mps 751 mmHg 59%
10:00 +21°C° 0 mm 4 mps 751 mmHg 56%
11:00 +22°C° 0 mm 4 mps 751 mmHg 53%
12:00 +22°C° 0.1 mm 4 mps 751 mmHg 56%
13:00 +21°C° 0.1 mm 4 mps 751 mmHg 59%
14:00 +21°C° 0.1 mm 3 mps 751 mmHg 62%
15:00 +20°C° 0.8 mm 3 mps 751 mmHg 73%
16:00 +18°C° 0.8 mm 2 mps 751 mmHg 84%
17:00 +17°C° 0.8 mm 2 mps 751 mmHg 95%
18:00 +17°C° 1.5 mm 2 mps 751 mmHg 96%
19:00 +16°C° 1.5 mm 3 mps 751 mmHg 97%
20:00 +16°C° 1.5 mm 3 mps 750 mmHg 98%
21:00 +16°C° 1.4 mm 3 mps 750 mmHg 98%
22:00 +16°C° 1.4 mm 3 mps 750 mmHg 98%
23:00 +16°C° 1.4 mm 3 mps 750 mmHg 98%
Show more

We Need Your Consent

Meteoprog and our Service Providers may store and access personal data such as cookies, device identifiers or other similar technologies on your device and process such data to personalise content and ads, as well as provide social media features and to analyse the traffic.

  • Store and/or access information on your device

    Cookies, device identifiers or other information can be stored or accessed on your device for the purposes indicated above.

  • Personalised ads and content, ad and content measurement, audience insights, and products development

    Ads and content can be personalised based on a profile. More data can be added to better personalise ads and content. Ad and content performance can be measured. Insights about the audience who saw the ads and content can be derived. Such data can be used to develop or improve user’s experience, systems and software.

By clicking ‘I Agree’ you will allow the use of indicated cookies, device identifiers, web beacons or other similar technologies. Your settings can be changed in the browser on your device.

For certain purposes, legitimate interests may be relied on, rather than consent. You can read more about this in our Privacy and Cookie Policy.